Portada
METAR-TAF:

METAR-TAF

Aeroports :

Fond Du Lac County Airport

Fond du Lac, Wisconsin, Estats Units d'Amèrica

latitud: 43-46-12N, longitud: 088-29-11W, altitud: 246 m

Observació

L'informe es va fer fa 21 minuts, a les 17:53 UTC
Vent 10 kt del Sud-Oest amb ràfegues de 18 kt
Temperatura -1°C
Humitat 74%
Pressió 1020 hPa
Visibilitat: 16.1 km
Cel clar

METAR: KFLD 101753Z AUTO 23010G18KT 10SM CLR M01/M05 A3013 RMK AO2 SLP215 T10061050 11006 21089 58024

Hora: 12:14 (18:14 UTC)


TAF: manca

Observacions i pronòstics meteorològics de més de 4000 aeroports (METAR i TAF).

Les estacions disponibles són els punts grocs i vermells al mapa.

Posi el ratolí al punt desitjat per veure el nom de l'estació.

Feu clic per veure les observacions i els pronòstics meteorològics.

Per canviar el mapa: feu clic els botons verds amb una creu de color negre per apropar; al botó verd amb un guió per allunyar la imatge; o en les fletxes verdes per a mapes adjacents.


METAR-TAF: